Location: Burtsch�tz
(51.0528°N, 12.1764°E)
Time: 01:59:26
(UTC+00:00)

H-2A R/B - Pass Details

Date: 29 October 2020
Orbit: 733 x 837 km, 98.2° (Epoch: 23 November)

Event Time Altitude Azimuth Distance (km) Brightness Sun altitude
Rises 17:56:53 0° 162° (SSE) 3,359 5.1 -20.4°
Reaches altitude 10° 17:59:13 10° 162° (SSE) 2,437 4.4 -20.7°
Maximum altitude 18:04:39 88° 73° (ENE) 846 2.1 -21.6°
Drops below altitude 10° 18:10:09 10° 346° (NNW) 2,460 4.8 -22.5°
Sets 18:12:31 0° 346° (NNW) 3,394 5.6 -22.8°
